Location: Eaton Estates
(41.3089°N, 82.0057°W)
Time: 11:31:00
(UTC+00:00)

NOAA 18 - Visible Passes

Search period start: 02 April 2023 00:00
Search period end: 12 April 2023 00:00
Orbit: 839 x 859 km, 98.9° (Epoch: 02 April)

Date Brightness Start Highest point End Pass type
(mag) Time Alt. Az. Time Alt. Az. Time Alt. Az.
02 Apr 6.7 02:12:55 22° NE 02:12:55 22° NE 02:16:12 10° NNE visible
02 Apr 7.0 03:54:53 28° NW 03:54:53 28° NW 03:57:38 10° NNW visible
03 Apr 6.9 02:00:28 18° NE 02:00:28 18° NE 02:03:37 10° NNE visible
03 Apr 6.7 03:42:26 34° NNW 03:42:26 34° NNW 03:45:32 10° NNW visible
04 Apr 7.1 01:48:01 15° ENE 01:48:01 15° ENE 01:50:51 10° NNE visible
04 Apr 6.4 03:29:59 39° NNW 03:29:59 39° NNW 03:33:22 10° NNW visible
05 Apr 7.2 01:35:34 12° ENE 01:35:52 12° NE 01:37:44 10° NE visible
05 Apr 6.2 03:17:32 42° N 03:17:32 42° N 03:21:10 10° N visible
05 Apr 8.0 04:59:30 10° WNW 04:59:30 10° WNW 04:59:33 10° WNW visible
06 Apr 6.1 03:05:05 43° NNE 03:05:05 43° NNE 03:08:55 10° N visible
06 Apr 7.8 04:47:03 13° WNW 04:47:03 13° WNW 04:48:10 10° NW visible
07 Apr 6.1 02:52:38 40° NNE 02:52:38 40° NNE 02:56:36 10° N visible
07 Apr 7.5 04:34:36 17° WNW 04:34:36 17° WNW 04:36:30 10° NW visible
08 Apr 6.2 02:40:10 35° NE 02:40:10 35° NE 02:44:15 10° N visible
08 Apr 7.2 04:22:08 22° WNW 04:22:08 22° WNW 04:24:39 10° NW visible
09 Apr 6.3 02:27:43 30° NE 02:27:43 30° NE 02:31:51 10° N visible
09 Apr 6.9 04:09:41 28° NW 04:09:41 28° NW 04:12:42 10° NNW visible
10 Apr 6.5 02:15:16 24° ENE 02:15:16 24° ENE 02:19:21 10° NNE visible
10 Apr 6.6 03:57:14 34° NW 03:57:14 34° NW 04:00:40 10° NNW visible
11 Apr 6.8 02:02:49 20° ENE 02:02:56 20° ENE 02:06:47 10° NNE visible
11 Apr 6.3 03:44:46 42° NW 03:44:46 42° NW 03:48:35 10° NNW visible
